IW8RUI-5 Weather Reports


time (UTC)temp
C
wind
direction
speed
KPH
gust
KPH
rain 1hr
cm
rain 24hr
cm
rain mn
cm
humidity
%
barometer
mb
20260507155427 15 173 0.0 0.0 0.00 0.00 0.00 16 1004.0
20260507154927 15 152 0.0 0.0 0.00 0.00 0.00 16 1004.0
20260507154427 15 150 0.0 0.0 0.00 0.00 0.00 16 1004.0
20260507153927 15 155 0.0 0.0 0.00 0.00 0.00 16 1004.0
20260507153427 16 163 0.0 0.0 0.00 0.00 0.00 16 1004.0
20260507152927 16 170 0.0 0.0 0.00 0.00 0.00 16 1004.0
20260507152430 16 158 0.0 0.0 0.00 0.00 0.00 16 1004.0
20260507151927 15 148 0.0 0.0 0.00 0.00 0.00 16 1004.0
20260507151427 15 173 0.0 0.0 0.00 0.00 0.00 17 1004.0
20260507150427 15 150 0.0 0.0 0.00 0.00 0.00 14 1004.0
20260507145927 15 157 0.0 0.0 0.00 0.00 0.00 14 1004.0
20260507145427 15 168 0.0 0.0 0.00 0.00 0.00 14 1004.0
20260507144927 15 156 0.0 0.0 0.00 0.00 0.00 16 1004.0
20260507144427 15 151 0.0 0.0 0.00 0.00 0.00 16 1004.0
20260507143927 15 149 0.0 0.0 0.00 0.00 0.00 16 1004.0
20260507143427 15 150 0.0 0.0 0.00 0.00 0.00 16 1004.0
20260507142927 15 172 0.0 0.0 0.00 0.00 0.00 16 1005.0
20260507142427 15 157 0.0 0.0 0.00 0.00 0.00 14 1005.0
20260507141927 14 168 0.0 0.0 0.00 0.00 0.00 14 1005.0
20260507141836 14 168 0.0 0.0 0.00 0.00 0.00 12 1005.0
20260507141431 14 163 0.0 0.0 0.00 0.00 0.00 14 1005.0
20260507140927 14 168 0.0 0.0 0.00 0.00 0.00 12 1005.0
20260507140431 14 151 0.0 0.0 0.00 0.00 0.00 12 1005.0
20260507135927 14 174 0.0 0.0 0.00 0.00 0.00 12 1005.0
20260507135431 14 158 0.0 0.0 0.00 0.00 0.00 14 1005.0
20260507134932 15 174 0.0 0.0 0.00 0.00 0.00 14 1005.0
20260507134427 15 172 0.0 0.0 0.00 0.00 0.00 14 1005.0
20260507133927 15 148 0.0 0.0 0.00 0.00 0.00 14 1005.0
20260507132928 15 168 0.0 0.0 0.00 0.00 0.00 16 1005.0
20260507132427 16 161 0.0 0.0 0.00 0.00 0.00 16 1005.0
20260507131927 16 173 0.0 0.0 0.00 0.00 0.00 16 1005.0
20260507131427 16 154 0.0 0.0 0.00 0.00 0.00 16 1005.0
20260507130927 16 172 0.0 0.0 0.00 0.00 0.00 13 1005.0
20260507130427 16 166 0.0 0.0 0.00 0.00 0.00 14 1005.0
20260507125928 16 147 0.0 0.0 0.00 0.00 0.00 16 1005.0
20260507125427 16 171 0.0 0.0 0.00 0.00 0.00 16 1005.0
20260507124927 16 160 0.0 0.0 0.00 0.00 0.00 13 1005.0
20260507124427 16 147 0.0 0.0 0.00 0.00 0.00 14 1005.0
20260507123927 15 147 0.0 0.0 0.00 0.00 0.00 14 1005.0
20260507123427 15 164 0.0 0.0 0.00 0.00 0.00 14 1005.0
20260507122927 15 172 0.0 0.0 0.00 0.00 0.00 14 1005.0
20260507122427 15 152 0.0 0.0 0.00 0.00 0.00 14 1005.0
20260507121927 15 165 0.0 0.0 0.00 0.00 0.00 14 1005.0
20260507121427 15 152 0.0 0.0 0.00 0.00 0.00 14 1005.0
20260507120927 15 155 0.0 0.0 0.00 0.00 0.00 17 1005.0
20260507115927 15 149 0.0 0.0 0.00 0.00 0.00 16 1005.0
20260507115427 15 171 0.0 0.0 0.00 0.00 0.00 16 1005.0
20260507114927 15 154 0.0 0.0 0.00 0.00 0.00 16 1005.0
20260507114429 15 157 0.0 0.0 0.00 0.00 0.00 16 1005.0
20260507113927 16 156 0.0 0.0 0.00 0.00 0.00 16 1005.0
20260507113427 16 150 0.0 0.0 0.00 0.00 0.00 16 1005.0
20260507112927 16 170 0.0 0.0 0.00 0.00 0.00 16 1005.0
20260507112427 16 150 0.0 0.0 0.00 0.00 0.00 16 1005.0
20260507111930 16 147 0.0 0.0 0.00 0.00 0.00 16 1005.0
20260507111427 16 167 0.0 0.0 0.00 0.00 0.00 16 1005.0
20260507110927 16 147 0.0 0.0 0.00 0.00 0.00 16 1005.0
20260507110427 16 163 0.0 0.0 0.00 0.00 0.00 16 1005.0
20260507105927 16 153 0.0 0.0 0.00 0.00 0.00 16 1006.0
20260507105427 16 161 0.0 0.0 0.00 0.00 0.00 16 1006.0
20260507104927 16 171 0.0 0.0 0.00 0.00 0.00 16 1006.0
20260507104427 16 170 0.0 0.0 0.00 0.00 0.00 16 1006.0
20260507103927 16 158 0.0 0.0 0.00 0.00 0.00 16 1006.0
20260507103427 16 169 0.0 0.0 0.00 0.00 0.00 16 1006.0
20260507102927 16 146 0.0 0.0 0.00 0.00 0.00 16 1006.0
20260507101927 16 164 0.0 0.0 0.00 0.00 0.00 16 1006.0
20260507101427 16 147 0.0 0.0 0.00 0.00 0.00 16 1006.0
20260507100927 16 147 0.0 0.0 0.00 0.00 0.00 16 1006.0
20260507100427 16 161 0.0 0.0 0.00 0.00 0.00 16 1006.0
20260507095927 16 146 0.0 0.0 0.00 0.00 0.00 16 1007.0
20260507095427 16 156 0.0 0.0 0.00 0.00 0.00 16 1007.0
20260507094927 16 171 0.0 0.0 0.00 0.00 0.00 16 1007.0
20260507094427 15 171 0.0 0.0 0.00 0.00 0.00 16 1007.0
20260507093927 15 159 0.0 0.0 0.00 0.00 0.00 16 1007.0
20260507093427 16 149 0.0 0.0 0.00 0.00 0.00 16 1007.0
20260507092927 15 172 0.0 0.0 0.00 0.00 0.00 16 1007.0
20260507092427 15 157 0.0 0.0 0.00 0.00 0.00 16 1007.0
20260507091927 15 164 0.0 0.0 0.00 0.00 0.00 16 1007.0
20260507091427 16 169 0.0 0.0 0.00 0.00 0.00 16 1007.0
20260507090927 15 170 0.0 0.0 0.00 0.00 0.00 16 1007.0
20260507090430 15 161 0.0 0.0 0.00 0.00 0.00 16 1007.0
20260507085927 15 146 0.0 0.0 0.00 0.00 0.00 16 1007.0
20260507085427 15 149 0.0 0.0 0.00 0.00 0.00 16 1007.0
20260507084927 15 160 0.0 0.0 0.00 0.00 0.00 16 1007.0
20260507084427 15 148 0.0 0.0 0.00 0.00 0.00 16 1007.0
20260507083927 15 149 0.0 0.0 0.00 0.00 0.00 16 1007.0
20260507083427 15 165 0.0 0.0 0.00 0.00 0.00 16 1007.0
20260507082927 15 151 0.0 0.0 0.00 0.00 0.00 17 1007.0
20260507082427 15 172 0.0 0.0 0.00 0.00 0.00 17 1007.0
20260507081927 15 172 0.0 0.0 0.00 0.00 0.00 17 1007.0
20260507081427 15 153 0.0 0.0 0.00 0.00 0.00 17 1008.0
20260507080927 15 150 0.0 0.0 0.00 0.00 0.00 17 1008.0
20260507080427 15 170 0.0 0.0 0.00 0.00 0.00 17 1008.0
20260507075927 15 168 0.0 0.0 0.00 0.00 0.00 17 1008.0
20260507075427 15 166 0.0 0.0 0.00 0.00 0.00 17 1008.0
20260507074927 14 157 0.0 0.0 0.00 0.00 0.00 17 1008.0
20260507074427 14 146 0.0 0.0 0.00 0.00 0.00 17 1008.0
20260507073927 14 159 0.0 0.0 0.00 0.00 0.00 17 1008.0
20260507073427 13 171 0.0 0.0 0.00 0.00 0.00 17 1008.0
20260507072927 13 169 0.0 0.0 0.00 0.00 0.00 17 1008.0
20260507072427 13 160 0.0 0.0 0.00 0.00 0.00 17 1008.0
20260507071927 13 161 0.0 0.0 0.00 0.00 0.00 17 1008.0
20260507071427 13 168 0.0 0.0 0.00 0.00 0.00 17 1008.0
20260507070427 13 172 0.0 0.0 0.00 0.00 0.00 17 1008.0
20260507065927 13 153 0.0 0.0 0.00 0.00 0.00 17 1008.0
20260507065427 13 149 0.0 0.0 0.00 0.00 0.00 17 1008.0
20260507064927 13 170 0.0 0.0 0.00 0.00 0.00 17 1008.0
20260507064427 13 172 0.0 0.0 0.00 0.00 0.00 17 1008.0
20260507063927 13 147 0.0 0.0 0.00 0.00 0.00 17 1008.0
20260507063427 13 171 0.0 0.0 0.00 0.00 0.00 17 1008.0
20260507062927 13 169 0.0 0.0 0.00 0.00 0.00 17 1008.0
20260507062427 13 147 0.0 0.0 0.00 0.00 0.00 14 1008.0
20260507061927 13 155 0.0 0.0 0.00 0.00 0.00 14 1008.0
20260507061427 13 166 0.0 0.0 0.00 0.00 0.00 15 1008.0
20260507060927 12 161 0.0 0.0 0.00 0.00 0.00 15 1008.0
20260507060427 12 160 0.0 0.0 0.00 0.00 0.00 15 1008.0
20260507055927 12 149 0.0 0.0 0.00 0.00 0.00 15 1008.0
20260507055427 12 171 0.0 0.0 0.00 0.00 0.00 15 1008.0
20260507054927 12 168 0.0 0.0 0.00 0.00 0.00 15 1008.0
20260507054427 12 160 0.0 0.0 0.00 0.00 0.00 15 1008.0
20260507053927 12 168 0.0 0.0 0.00 0.00 0.00 15 1008.0
20260507052927 12 152 0.0 0.0 0.00 0.00 0.00 15 1008.0
20260507052427 11 146 0.0 0.0 0.00 0.00 0.00 15 1008.0
20260507051927 11 157 0.0 0.0 0.00 0.00 0.00 15 1008.0
20260507051427 11 170 0.0 0.0 0.00 0.00 0.00 15 1008.0
20260507050927 11 170 0.0 0.0 0.00 0.00 0.00 15 1008.0
20260507050427 11 147 0.0 0.0 0.00 0.00 0.00 15 1008.0
20260507045927 11 167 0.0 0.0 0.00 0.00 0.00 15 1008.0
20260507045427 11 168 0.0 0.0 0.00 0.00 0.00 15 1008.0
20260507044927 11 172 0.0 0.0 0.00 0.00 0.00 15 1008.0
20260507044427 11 162 0.0 0.0 0.00 0.00 0.00 15 1008.0
20260507043927 11 152 0.0 0.0 0.00 0.00 0.00 15 1008.0
20260507043427 11 172 0.0 0.0 0.00 0.00 0.00 15 1008.0
20260507042927 11 147 0.0 0.0 0.00 0.00 0.00 15 1008.0
20260507041927 11 165 0.0 0.0 0.00 0.00 0.00 15 1008.0
20260507041427 11 171 0.0 0.0 0.00 0.00 0.00 15 1008.0
20260507040927 12 148 0.0 0.0 0.00 0.00 0.00 15 1008.0
20260507040427 12 172 0.0 0.0 0.00 0.00 0.00 15 1008.0
20260507035927 12 164 0.0 0.0 0.00 0.00 0.00 15 1008.0
20260507035427 12 148 0.0 0.0 0.00 0.00 0.00 15 1008.0
20260507033927 11 148 0.0 0.0 0.00 0.00 0.00 15 1008.0
20260507033427 11 167 0.0 0.0 0.00 0.00 0.00 15 1008.0
20260507032927 11 146 0.0 0.0 0.00 0.00 0.00 15 1008.0
20260507032427 11 147 0.0 0.0 0.00 0.00 0.00 15 1008.0
20260507031927 11 152 0.0 0.0 0.00 0.00 0.00 15 1008.0
20260507031427 11 163 0.0 0.0 0.00 0.00 0.00 15 1008.0
20260507030927 11 168 0.0 0.0 0.00 0.00 0.00 15 1008.0
20260507030427 11 165 0.0 0.0 0.00 0.00 0.00 15 1008.0
20260507025927 11 171 0.0 0.0 0.00 0.00 0.00 15 1008.0
20260507025427 11 147 0.0 0.0 0.00 0.00 0.00 16 1008.0
20260507024927 11 148 0.0 0.0 0.00 0.00 0.00 16 1008.0
20260507024427 11 146 0.0 0.0 0.00 0.00 0.00 15 1009.0
20260507023927 11 151 0.0 0.0 0.00 0.00 0.00 15 1009.0
20260507023427 11 160 0.0 0.0 0.00 0.00 0.00 15 1009.0
20260507022927 11 168 0.0 0.0 0.00 0.00 0.00 15 1007.0
20260507022427 11 170 0.0 0.0 0.00 0.00 0.00 15 1007.0
20260507021927 11 170 0.0 0.0 0.00 0.00 0.00 15 1007.0
20260507021427 11 165 0.0 0.0 0.00 0.00 0.00 15 1008.0
20260507020927 11 154 0.0 0.0 0.00 0.00 0.00 15 1008.0
20260507020427 11 153 0.0 0.0 0.00 0.00 0.00 15 1008.0
20260507015927 11 171 0.0 0.0 0.00 0.00 0.00 16 1008.0
20260507015427 11 166 0.0 0.0 0.00 0.00 0.00 16 1008.0
20260507014927 11 166 0.0 0.0 0.00 0.00 0.00 16 1008.0
20260507014427 11 172 0.0 0.0 0.00 0.00 0.00 16 1009.0
20260507013927 11 149 0.0 0.0 0.00 0.00 0.00 15 1009.0
20260507013427 11 148 0.0 0.0 0.00 0.00 0.00 15 1009.0
20260507012927 11 169 0.0 0.0 0.00 0.00 0.00 15 1009.0
20260507012428 11 147 0.0 0.0 0.00 0.00 0.00 15 1009.0
20260507011927 11 171 0.0 0.0 0.00 0.00 0.00 15 1009.0
20260507011427 11 165 0.0 0.0 0.00 0.00 0.00 15 1009.0
20260507010927 11 165 0.0 0.0 0.00 0.00 0.00 15 1009.0
20260507010427 11 171 0.0 0.0 0.00 0.00 0.00 15 1009.0
20260507005927 11 160 0.0 0.0 0.00 0.00 0.00 15 1008.0
20260507005427 11 146 0.0 0.0 0.00 0.00 0.00 15 1008.0
20260507004927 11 146 0.0 0.0 0.00 0.00 0.00 15 1008.0
20260507004427 11 172 0.0 0.0 0.00 0.00 0.00 15 1009.0
20260507003927 11 167 0.0 0.0 0.00 0.00 0.00 15 1009.0
20260507003427 12 153 0.0 0.0 0.00 0.00 0.00 15 1009.0
20260507002927 12 161 0.0 0.0 0.00 0.00 0.00 15 1009.0
20260507002427 12 149 0.0 0.0 0.00 0.00 0.00 15 1009.0
20260507001927 12 170 0.0 0.0 0.00 0.00 0.00 15 1009.0
20260507001427 12 146 0.0 0.0 0.00 0.00 0.00 15 1009.0
20260507000927 12 170 0.0 0.0 0.00 0.00 0.00 15 1009.0
20260507000427 12 171 0.0 0.0 0.00 0.00 0.00 15 1009.0
20260506235927 12 146 0.0 0.0 0.00 0.00 0.00 15 1008.0
20260506235427 12 145 0.0 0.0 0.00 0.00 0.00 15 1008.0
20260506234927 12 158 0.0 0.0 0.00 0.00 0.00 15 1008.0
20260506234427 12 162 0.0 0.0 0.00 0.00 0.00 15 1008.0
20260506233927 12 145 0.0 0.0 0.00 0.00 0.00 15 1008.0
20260506233427 12 168 0.0 0.0 0.00 0.00 0.00 15 1008.0
20260506232427 12 170 0.0 0.0 0.00 0.00 0.00 15 1009.0
20260506231927 13 170 0.0 0.0 0.00 0.00 0.00 15 1009.0
20260506231427 13 172 0.0 0.0 0.00 0.00 0.00 14 1008.0
20260506230927 13 170 0.0 0.0 0.00 0.00 0.00 14 1008.0
20260506230427 13 164 0.0 0.0 0.00 0.00 0.00 14 1008.0
20260506225927 13 153 0.0 0.0 0.00 0.00 0.00 14 1008.0
20260506225430 13 149 0.0 0.0 0.00 0.00 0.00 17 1008.0
20260506224927 13 155 0.0 0.0 0.00 0.00 0.00 14 1008.0
20260506224427 13 169 0.0 0.0 0.00 0.00 0.00 14 1008.0
20260506223927 13 165 0.0 0.0 0.00 0.00 0.00 17 1008.0
20260506223427 13 146 0.0 0.0 0.00 0.00 0.00 17 1008.0
20260506222927 13 165 0.0 0.0 0.00 0.00 0.00 17 1008.0
20260506222427 13 157 0.0 0.0 0.00 0.00 0.00 17 1008.0
20260506221927 13 168 0.0 0.0 0.00 0.00 0.00 17 1008.0
20260506221427 13 164 0.0 0.0 0.00 0.00 0.00 14 1008.0
20260506220927 13 153 0.0 0.0 0.00 0.00 0.00 14 1008.0
20260506220427 13 161 0.0 0.0 0.00 0.00 0.00 17 1008.0
20260506215427 15 169 0.0 0.0 0.00 0.00 0.00 17 1008.0
20260506214927 15 164 0.0 0.0 0.00 0.00 0.00 17 1008.0
20260506214427 15 147 0.0 0.0 0.00 0.00 0.00 17 1008.0
20260506213927 15 172 0.0 0.0 0.00 0.00 0.00 17 1008.0
20260506213427 15 155 0.0 0.0 0.00 0.00 0.00 17 1008.0
20260506212927 15 173 0.0 0.0 0.00 0.00 0.00 17 1008.0
20260506212427 14 173 0.0 0.0 0.00 0.00 0.00 17 1008.0
20260506211927 14 174 0.0 0.0 0.00 0.00 0.00 17 1008.0
20260506211427 13 154 0.0 0.0 0.00 0.00 0.00 17 1008.0
20260506210927 13 164 0.0 0.0 0.00 0.00 0.00 14 1008.0
20260506210427 13 168 0.0 0.0 0.00 0.00 0.00 14 1008.0
20260506205927 13 151 0.0 0.0 0.00 0.00 0.00 14 1009.0
20260506205427 13 165 0.0 0.0 0.00 0.00 0.00 14 1009.0
20260506204927 13 153 0.0 0.0 0.00 0.00 0.00 15 1009.0
20260506204427 12 171 0.0 0.0 0.00 0.00 0.00 15 1009.0
20260506203927 12 151 0.0 0.0 0.00 0.00 0.00 15 1009.0
20260506203427 12 155 0.0 0.0 0.00 0.00 0.00 15 1009.0
20260506202927 12 167 0.0 0.0 0.00 0.00 0.00 15 1009.0
20260506202427 12 171 0.0 0.0 0.00 0.00 0.00 15 1009.0
20260506201927 12 161 0.0 0.0 0.00 0.00 0.00 15 1009.0
20260506201427 12 152 0.0 0.0 0.00 0.00 0.00 15 1009.0
20260506200927 12 165 0.0 0.0 0.00 0.00 0.00 15 1009.0
20260506200427 12 153 0.0 0.0 0.00 0.00 0.00 15 1009.0
20260506195927 12 179 0.0 0.0 0.00 0.00 0.00 15 1010.0
20260506195427 12 173 0.0 0.0 0.00 0.00 0.00 15 1010.0
20260506194928 12 173 0.0 0.0 0.00 0.00 0.00 15 1010.0
20260506194427 12 161 0.0 0.0 0.00 0.00 0.00 15 1009.0
20260506193927 11 156 0.0 0.0 0.00 0.00 0.00 15 1009.0
20260506193427 11 175 0.0 0.0 0.00 0.00 0.00 15 1009.0
20260506192427 11 180 0.0 0.0 0.00 0.00 0.00 15 1009.0
20260506191927 11 181 0.0 0.0 0.00 0.00 0.00 15 1009.0
20260506191427 11 184 0.0 0.0 0.00 0.00 0.00 15 1009.0
20260506190427 11 161 0.0 0.0 0.00 0.00 0.00 15 1009.0
20260506185927 11 159 0.0 0.0 0.00 0.00 0.00 16 1009.0
20260506185427 11 186 0.0 0.0 0.00 0.00 0.00 15 1009.0
20260506184927 11 161 0.0 0.0 0.00 0.00 0.00 15 1009.0
20260506184427 11 185 0.0 0.0 0.00 0.00 0.00 15 1009.0
20260506183927 11 183 0.0 0.0 0.00 0.00 0.00 15 1009.0
20260506183427 11 161 0.0 0.0 0.00 0.00 0.00 15 1009.0
20260506182427 12 173 0.0 0.0 0.00 0.00 0.00 15 1009.0
20260506181927 12 188 0.0 0.0 0.00 0.00 0.00 15 1009.0
20260506181427 12 163 0.0 0.0 0.00 0.00 0.00 15 1009.0
20260506180427 12 165 0.0 0.0 0.00 0.00 0.00 15 1009.0
20260506175927 12 162 0.0 0.0 0.00 0.00 0.00 15 1009.0
20260506175427 12 164 0.0 0.0 0.00 0.00 0.00 15 1009.0
20260506174927 12 165 0.0 0.0 0.00 0.00 0.00 15 1009.0
20260506174427 13 174 0.0 0.0 0.00 0.00 0.00 15 1009.0
20260506173927 13 174 0.0 0.0 0.00 0.00 0.00 14 1009.0
20260506173427 13 172 0.0 0.0 0.00 0.00 0.00 14 1009.0
20260506172927 13 164 0.0 0.0 0.00 0.00 0.00 14 1009.0
20260506172427 13 170 0.0 0.0 0.00 0.00 0.00 14 1009.0
20260506171927 13 160 0.0 0.0 0.00 0.00 0.00 14 1009.0
20260506171427 14 183 0.0 0.0 0.00 0.00 0.00 14 1009.0
20260506170927 14 170 0.0 0.0 0.00 0.00 0.00 14 1009.0
20260506170427 15 163 0.0 0.0 0.00 0.00 0.00 14 1009.0
20260506165927 15 172 0.0 0.0 0.00 0.00 0.00 14 1009.0
20260506165427 15 175 0.0 0.0 0.00 0.00 0.00 14 1009.0
20260506164927 15 161 0.0 0.0 0.00 0.00 0.00 16 1009.0
20260506164427 15 182 0.0 0.0 0.00 0.00 0.00 16 1010.0
20260506163927 15 174 0.0 0.0 0.00 0.00 0.00 16 1010.0
20260506163427 15 173 0.0 0.0 0.00 0.00 0.00 16 1010.0
20260506162927 15 165 0.0 0.0 0.00 0.00 0.00 16 1009.0
20260506162427 15 160 0.0 0.0 0.00 0.00 0.00 14 1009.0
20260506161927 15 160 0.0 0.0 0.00 0.00 0.00 11 1009.0
20260506161427 15 171 0.0 0.0 0.00 0.00 0.00 10 1010.0
20260506160927 15 169 0.0 0.0 0.00 0.00 0.00 10 1010.0
20260506160427 15 184 0.0 0.0 0.00 0.00 0.00 10 1010.0
20260506155927 15 162 0.0 0.0 0.00 0.00 0.00 10 1010.0